QPF
0.00 0.00 0.01 0.03 0.03 0.03 0.03 0.03 0.02 0.03 0.03 0.04 0.04 0.04 0.04 0.04 0.03 0.02 0.02 0.01 0.02 0.02 0.02 0.03 0.02 0.01 0.01 0.01 0.01 0.02 0.02 0.01 0.01 0.01 0.01 0.01 0.01 0.01 0.01 0.01 0.01 0.03 0.04
0.00 0.00 0.01 0.02 0.02 0.02 0.02 0.02 0.02 0.02 0.02 0.02 0.02 0.02 0.02 0.02 0.02 0.02 0.01 0.01 0.01 0.02 0.02 0.03 0.03 0.02 0.01 0.02 0.02 0.02 0.02 0.02 0.01 0.01 0.01 0.02 0.03 0.02 0.01 0.01 0.01 0.03 0.03
0.00 0.00 0.01 0.01 0.01 0.01 0.01 0.02 0.02 0.01 0.01 0.01 0.01 0.01 0.01 0.01 0.01 0.01 0.01 0.01 0.01 0.01 0.02 0.02 0.03 0.02 0.02 0.02 0.03 0.02 0.02 0.02 0.01 0.01 0.01 0.02 0.02 0.02 0.02 0.02 0.02 0.02 0.02
0.00 0.00 0.01 0.01 0.01 0.01 0.01 0.02 0.02 0.01 0.01 0.01 0.01 0.01 0.01 0.01 0.02 0.01 0.01 0.01 0.01 0.01 0.01 0.01 0.02 0.02 0.02 0.02 0.04 0.04 0.03 0.02 0.01 0.01 0.00 0.01 0.02 0.02 0.03 0.04 0.04 0.03 0.02
0.00 0.00 0.00 0.01 0.01 0.01 0.01 0.02 0.02 0.01 0.01 0.01 0.01 0.01 0.01 0.02 0.01 0.01 0.01 0.01 0.01 0.01 0.01 0.01 0.02 0.02 0.02 0.01 0.03 0.03 0.03 0.03 0.00 0.00 0.01 0.02 0.03 0.02 0.03 0.05 0.07 0.07 0.05
0.00 0.00 0.00 0.01 0.01 0.01 0.01 0.01 0.02 0.01 0.01 0.01 0.00 0.01 0.01 0.01 0.01 0.01 0.02 0.01 0.01 0.01 0.01 0.01 0.01 0.01 0.02 0.01 0.02 0.02 0.03 0.02 0.01 0.01 0.01 0.02 0.02 0.03 0.02 0.04 0.04 0.06 0.07
0.00 0.00 0.00 0.01 0.01 0.01 0.02 0.02 0.03 0.02 0.01 0.01 0.00 0.01 0.01 0.01 0.00 0.01 0.01 0.01 0.01 0.01 0.01 0.00 0.00 0.01 0.01 0.01 0.01 0.01 0.02 0.02 0.01 0.01 0.01 0.02 0.02 0.01 0.01 0.02 0.03 0.04 0.05
0.00 0.00 0.00 0.01 0.01 0.01 0.01 0.02 0.03 0.03 0.02 0.01 0.01 0.01 0.01 0.01 0.00 0.00 0.01 0.01 0.01 0.00 0.01 0.01 0.01 0.01 0.00 0.01 0.01 0.01 0.03 0.02 0.01 0.01 0.01 0.02 0.02 0.01 0.01 0.01 0.02 0.02 0.05
0.00 0.01 0.01 0.02 0.02 0.02 0.02 0.02 0.03 0.03 0.03 0.02 0.02 0.02 0.02 0.02 0.00 0.00 0.00 0.00 0.00 0.00 0.00 0.00 0.00 0.01 0.00 0.00 0.00 0.01 0.03 0.02 0.03 0.02 0.01 0.02 0.02 0.02 0.01 0.01 0.02 0.03 0.06
0.02 0.02 0.02 0.03 0.03 0.03 0.04 0.04 0.05 0.05 0.05 0.04 0.04 0.04 0.04 0.02 0.01 0.00 0.00 0.00 0.00 0.00 0.00 0.00 0.00 0.01 0.00 0.00 0.01 0.01 0.02 0.02 0.04 0.03 0.02 0.01 0.02 0.02 0.02 0.02 0.02 0.04 0.05
0.05 0.05 0.04 0.04 0.05 0.05 0.04 0.04 0.05 0.07 0.07 0.07 0.07 0.05 0.04 0.03 0.02 0.01 0.00 0.00 0.00 0.00 0.00 0.00 0.00 0.00 0.00 0.00 0.01 0.01 0.01 0.03 0.03 0.03 0.02 0.02 0.02 0.02 0.03 0.03 0.03 0.03 0.03
0.08 0.08 0.08 0.07 0.07 0.06 0.05 0.04 0.06 0.07 0.08 0.07 0.08 0.07 0.06 0.04 0.03 0.01 0.00 0.00 0.00 0.00 0.00 0.00 0.00 0.00 0.00 0.00 0.00 0.00 0.01 0.01 0.02 0.01 0.01 0.01 0.02 0.03 0.03 0.02 0.03 0.03 0.03
0.13 0.12 0.09 0.11 0.08 0.09 0.08 0.07 0.07 0.08 0.08 0.07 0.06 0.06 0.07 0.05 0.03 0.01 0.01 0.00 0.00 0.00 0.00 0.00 0.00 0.00 0.00 0.00 0.00 0.00 0.00 0.00 0.00 0.00 0.00 0.01 0.02 0.02 0.02 0.01 0.02 0.03 0.03
0.17 0.18 0.13 0.14 0.14 0.12 0.11 0.10 0.10 0.09 0.08 0.07 0.06 0.05 0.05 0.04 0.03 0.01 0.01 0.01 0.00 0.00 0.00 0.00 0.00 0.00 0.00 0.00 0.00 0.00 0.00 0.00 0.00 0.00 0.00 0.01 0.01 0.02 0.02 0.02 0.02 0.02 0.03
0.16 0.16 0.15 0.15 0.17 0.18 0.18 0.14 0.11 0.11 0.11 0.08 0.07 0.06 0.05 0.05 0.05 0.03 0.01 0.01 0.00 0.00 0.00 0.00 0.00 0.00 0.00 0.00 0.00 0.00 0.00 0.00 0.00 0.00 0.00 0.00 0.01 0.01 0.02 0.02 0.02 0.03 0.03
0.12 0.13 0.13 0.10 0.12 0.15 0.16 0.18 0.15 0.16 0.16 0.14 0.10 0.09 0.08 0.06 0.06 0.05 0.03 0.01 0.01 0.01 0.01 0.00 0.00 0.00 0.00 0.00 0.00 0.00 0.00 0.00 0.00 0.00 0.00 0.00 0.00 0.01 0.01 0.02 0.02 0.03 0.03
0.08 0.08 0.10 0.10 0.12 0.14 0.16 0.17 0.15 0.16 0.17 0.18 0.16 0.13 0.11 0.09 0.07 0.07 0.05 0.03 0.02 0.01 0.01 0.00 0.00 0.00 0.00 0.00 0.00 0.00 0.00 0.00 0.00 0.00 0.00 0.00 0.00 0.00 0.01 0.02 0.02 0.03 0.03
0.05 0.06 0.07 0.08 0.08 0.09 0.13 0.15 0.14 0.14 0.17 0.18 0.19 0.16 0.12 0.10 0.11 0.11 0.09 0.06 0.03 0.02 0.01 0.01 0.01 0.00 0.00 0.00 0.00 0.00 0.00 0.00 0.00 0.00 0.00 0.00 0.00 0.00 0.00 0.01 0.01 0.02 0.02
0.04 0.04 0.05 0.05 0.05 0.07 0.08 0.10 0.09 0.09 0.13 0.15 0.16 0.15 0.12 0.12 0.14 0.14 0.11 0.08 0.07 0.05 0.03 0.02 0.01 0.01 0.00 0.01 0.01 0.01 0.01 0.01 0.01 0.00 0.00 0.00 0.00 0.00 0.00 0.00 0.00 0.00 0.01
0.03 0.02 0.02 0.03 0.04 0.04 0.03 0.05 0.06 0.07 0.09 0.11 0.15 0.19 0.19 0.18 0.18 0.17 0.13 0.12 0.12 0.10 0.07 0.06 0.04 0.04 0.02 0.02 0.02 0.01 0.01 0.01 0.01 0.01 0.01 0.00 0.00 0.00 0.00 0.00 0.00 0.00 0.00
0.01 0.01 0.01 0.01 0.01 0.01 0.02 0.03 0.05 0.08 0.11 0.11 0.11 0.17 0.23 0.22 0.24 0.21 0.20 0.20 0.18 0.14 0.12 0.10 0.08 0.08 0.05 0.03 0.05 0.07 0.04 0.01 0.01 0.01 0.01 0.01 0.00 0.00 0.00 0.00 0.00 0.00 0.00
0.00 0.01 0.01 0.01 0.01 0.01 0.01 0.02 0.02 0.07 0.12 0.14 0.14 0.14 0.17 0.20 0.23 0.24 0.23 0.24 0.26 0.25 0.23 0.17 0.11 0.10 0.08 0.05 0.08 0.12 0.10 0.07 0.03 0.01 0.01 0.01 0.01 0.01 0.01 0.00 0.00 0.00 0.00
0.01 0.01 0.01 0.01 0.01 0.01 0.01 0.01 0.02 0.03 0.05 0.09 0.09 0.11 0.14 0.18 0.21 0.25 0.28 0.28 0.26 0.26 0.26 0.24 0.19 0.17 0.14 0.10 0.09 0.13 0.14 0.11 0.10 0.03 0.01 0.01 0.01 0.02 0.02 0.02 0.01 0.00 0.00
0.02 0.02 0.02 0.01 0.01 0.01 0.01 0.01 0.02 0.02 0.03 0.04 0.05 0.07 0.11 0.15 0.18 0.21 0.26 0.29 0.30 0.27 0.23 0.21 0.19 0.18 0.19 0.16 0.13 0.12 0.11 0.11 0.12 0.08 0.03 0.01 0.02 0.02 0.03 0.02 0.01 0.00 0.00
0.04 0.04 0.03 0.03 0.02 0.03 0.02 0.02 0.03 0.03 0.03 0.04 0.05 0.05 0.06 0.09 0.12 0.17 0.22 0.26 0.25 0.24 0.21 0.21 0.20 0.19 0.18 0.17 0.17 0.16 0.13 0.10 0.08 0.08 0.07 0.04 0.03 0.02 0.02 0.03 0.04 0.03 0.02
0.06 0.07 0.06 0.05 0.05 0.03 0.03 0.03 0.04 0.04 0.04 0.05 0.05 0.04 0.05 0.06 0.08 0.11 0.14 0.18 0.23 0.22 0.18 0.15 0.15 0.16 0.14 0.15 0.16 0.18 0.18 0.15 0.12 0.11 0.09 0.07 0.06 0.04 0.03 0.03 0.04 0.05 0.04
MSLP
1014.31 1014.25 1014.29 1014.45 1014.67 1014.92 1015.14 1015.30 1015.39 1015.41 1015.38 1015.35 1015.35 1015.41 1015.52 1015.69 1015.89 1016.08 1016.24 1016.34 1016.39 1016.38 1016.32 1016.26 1016.20 1016.16 1016.15 1016.17 1016.21 1016.25 1016.26 1016.25 1016.20 1016.10 1015.99 1015.86 1015.74 1015.64 1015.58 1015.56 1015.58 1015.65 1015.74
1014.35 1014.33 1014.42 1014.61 1014.87 1015.14 1015.38 1015.56 1015.65 1015.66 1015.62 1015.58 1015.56 1015.61 1015.72 1015.88 1016.08 1016.27 1016.42 1016.51 1016.55 1016.53 1016.48 1016.42 1016.38 1016.36 1016.37 1016.40 1016.43 1016.46 1016.45 1016.41 1016.33 1016.22 1016.09 1015.97 1015.86 1015.78 1015.73 1015.73 1015.76 1015.81 1015.89
1014.38 1014.40 1014.53 1014.76 1015.05 1015.35 1015.62 1015.81 1015.91 1015.93 1015.90 1015.85 1015.83 1015.87 1015.97 1016.11 1016.28 1016.43 1016.55 1016.62 1016.63 1016.61 1016.56 1016.53 1016.51 1016.52 1016.55 1016.59 1016.62 1016.62 1016.58 1016.51 1016.41 1016.28 1016.16 1016.05 1015.97 1015.92 1015.91 1015.91 1015.94 1015.99 1016.04
1014.37 1014.44 1014.61 1014.88 1015.20 1015.53 1015.82 1016.04 1016.16 1016.20 1016.18 1016.14 1016.13 1016.15 1016.23 1016.34 1016.46 1016.58 1016.65 1016.68 1016.67 1016.64 1016.61 1016.59 1016.61 1016.66 1016.71 1016.76 1016.77 1016.75 1016.68 1016.58 1016.46 1016.33 1016.22 1016.15 1016.11 1016.10 1016.11 1016.13 1016.16 1016.18 1016.20
1014.33 1014.43 1014.64 1014.94 1015.29 1015.65 1015.97 1016.20 1016.35 1016.41 1016.41 1016.39 1016.38 1016.41 1016.47 1016.55 1016.63 1016.70 1016.72 1016.71 1016.68 1016.65 1016.64 1016.66 1016.71 1016.79 1016.86 1016.91 1016.91 1016.86 1016.76 1016.63 1016.49 1016.38 1016.29 1016.26 1016.27 1016.30 1016.35 1016.38 1016.40 1016.40 1016.39
1014.25 1014.38 1014.61 1014.93 1015.31 1015.69 1016.02 1016.28 1016.44 1016.52 1016.55 1016.55 1016.56 1016.60 1016.65 1016.72 1016.77 1016.80 1016.79 1016.76 1016.72 1016.70 1016.70 1016.75 1016.84 1016.94 1017.02 1017.06 1017.04 1016.96 1016.83 1016.67 1016.53 1016.42 1016.38 1016.39 1016.45 1016.52 1016.59 1016.64 1016.65 1016.62 1016.59
1014.17 1014.30 1014.54 1014.87 1015.26 1015.64 1015.97 1016.23 1016.41 1016.50 1016.55 1016.58 1016.62 1016.68 1016.75 1016.82 1016.87 1016.89 1016.87 1016.83 1016.79 1016.78 1016.81 1016.89 1017.00 1017.11 1017.19 1017.21 1017.16 1017.04 1016.87 1016.70 1016.55 1016.47 1016.46 1016.52 1016.62 1016.74 1016.83 1016.88 1016.87 1016.83 1016.77
1014.14 1014.26 1014.48 1014.79 1015.16 1015.52 1015.84 1016.08 1016.25 1016.35 1016.42 1016.48 1016.56 1016.65 1016.76 1016.85 1016.93 1016.95 1016.94 1016.92 1016.90 1016.90 1016.95 1017.05 1017.16 1017.27 1017.34 1017.33 1017.24 1017.08 1016.89 1016.70 1016.56 1016.50 1016.53 1016.63 1016.78 1016.92 1017.03 1017.08 1017.06 1016.99 1016.91
1014.24 1014.30 1014.48 1014.75 1015.07 1015.38 1015.65 1015.86 1016.00 1016.09 1016.17 1016.26 1016.38 1016.52 1016.67 1016.82 1016.92 1016.98 1017.00 1017.00 1017.00 1017.02 1017.09 1017.19 1017.30 1017.39 1017.43 1017.38 1017.26 1017.06 1016.85 1016.65 1016.53 1016.50 1016.57 1016.71 1016.90 1017.07 1017.18 1017.23 1017.20 1017.11 1017.02
1014.51 1014.50 1014.60 1014.79 1015.03 1015.27 1015.46 1015.61 1015.71 1015.78 1015.87 1015.98 1016.14 1016.32 1016.52 1016.71 1016.85 1016.95 1017.00 1017.02 1017.05 1017.09 1017.16 1017.26 1017.36 1017.43 1017.43 1017.34 1017.18 1016.96 1016.74 1016.55 1016.45 1016.46 1016.58 1016.76 1016.98 1017.17 1017.30 1017.34 1017.30 1017.21 1017.11
1014.98 1014.87 1014.88 1014.97 1015.10 1015.23 1015.33 1015.40 1015.44 1015.49 1015.56 1015.69 1015.87 1016.09 1016.33 1016.55 1016.73 1016.85 1016.92 1016.96 1017.00 1017.05 1017.12 1017.21 1017.29 1017.33 1017.29 1017.18 1016.99 1016.77 1016.55 1016.39 1016.33 1016.39 1016.56 1016.79 1017.04 1017.26 1017.40 1017.44 1017.40 1017.30 1017.21
1015.63 1015.42 1015.31 1015.28 1015.29 1015.29 1015.28 1015.26 1015.24 1015.25 1015.31 1015.44 1015.63 1015.87 1016.12 1016.35 1016.53 1016.66 1016.73 1016.78 1016.82 1016.87 1016.93 1017.01 1017.07 1017.09 1017.03 1016.90 1016.71 1016.49 1016.30 1016.19 1016.18 1016.30 1016.52 1016.81 1017.10 1017.34 1017.50 1017.55 1017.52 1017.43 1017.34
1016.39 1016.09 1015.86 1015.70 1015.57 1015.45 1015.33 1015.21 1015.13 1015.10 1015.14 1015.26 1015.45 1015.67 1015.91 1016.12 1016.28 1016.38 1016.44 1016.47 1016.50 1016.55 1016.61 1016.68 1016.72 1016.72 1016.66 1016.53 1016.35 1016.17 1016.02 1015.97 1016.02 1016.21 1016.49 1016.82 1017.16 1017.43 1017.61 1017.69 1017.67 1017.60 1017.53
1017.18 1016.79 1016.46 1016.17 1015.91 1015.66 1015.44 1015.24 1015.10 1015.03 1015.05 1015.15 1015.31 1015.51 1015.70 1015.87 1015.98 1016.05 1016.07 1016.08 1016.09 1016.13 1016.19 1016.25 1016.30 1016.30 1016.24 1016.13 1015.98 1015.84 1015.75 1015.75 1015.88 1016.12 1016.46 1016.84 1017.21 1017.51 1017.72 1017.82 1017.84 1017.80 1017.76
1017.88 1017.43 1017.01 1016.61 1016.24 1015.89 1015.57 1015.31 1015.12 1015.02 1015.02 1015.09 1015.22 1015.37 1015.51 1015.61 1015.66 1015.67 1015.65 1015.64 1015.64 1015.68 1015.74 1015.81 1015.87 1015.89 1015.85 1015.76 1015.65 1015.56 1015.52 1015.58 1015.76 1016.05 1016.43 1016.84 1017.23 1017.56 1017.79 1017.93 1017.98 1017.98 1017.98
1018.41 1017.92 1017.43 1016.95 1016.49 1016.05 1015.67 1015.37 1015.15 1015.04 1015.01 1015.06 1015.14 1015.23 1015.30 1015.33 1015.32 1015.28 1015.23 1015.21 1015.22 1015.27 1015.35 1015.45 1015.53 1015.57 1015.55 1015.50 1015.42 1015.37 1015.37 1015.47 1015.68 1015.99 1016.38 1016.79 1017.19 1017.52 1017.78 1017.94 1018.04 1018.09 1018.14
1018.74 1018.23 1017.69 1017.16 1016.63 1016.14 1015.72 1015.39 1015.16 1015.03 1014.99 1015.00 1015.04 1015.07 1015.07 1015.04 1014.98 1014.90 1014.85 1014.84 1014.87 1014.96 1015.09 1015.22 1015.33 1015.40 1015.41 1015.37 1015.32 1015.28 1015.31 1015.42 1015.63 1015.93 1016.29 1016.68 1017.05 1017.37 1017.63 1017.82 1017.95 1018.06 1018.17
1018.87 1018.35 1017.79 1017.22 1016.66 1016.15 1015.71 1015.37 1015.13 1014.99 1014.92 1014.90 1014.88 1014.85 1014.80 1014.72 1014.63 1014.55 1014.51 1014.54 1014.63 1014.78 1014.96 1015.14 1015.29 1015.38 1015.41 1015.39 1015.34 1015.31 1015.33 1015.42 1015.60 1015.86 1016.17 1016.50 1016.82 1017.10 1017.34 1017.54 1017.71 1017.88 1018.05
1018.85 1018.34 1017.77 1017.19 1016.62 1016.10 1015.66 1015.32 1015.07 1014.91 1014.80 1014.73 1014.66 1014.57 1014.46 1014.35 1014.25 1014.20 1014.21 1014.31 1014.48 1014.71 1014.96 1015.20 1015.38 1015.50 1015.54 1015.52 1015.47 1015.42 1015.42 1015.48 1015.61 1015.80 1016.03 1016.28 1016.52 1016.74 1016.94 1017.13 1017.33 1017.54 1017.78
1018.77 1018.26 1017.70 1017.13 1016.56 1016.05 1015.61 1015.26 1015.00 1014.80 1014.64 1014.50 1014.36 1014.21 1014.06 1013.92 1013.83 1013.82 1013.91 1014.09 1014.36 1014.68 1015.01 1015.31 1015.53 1015.67 1015.72 1015.70 1015.64 1015.58 1015.55 1015.56 1015.63 1015.75 1015.90 1016.05 1016.20 1016.35 1016.49 1016.66 1016.86 1017.11 1017.41
1018.68 1018.18 1017.64 1017.08 1016.54 1016.04 1015.61 1015.24 1014.94 1014.69 1014.46 1014.23 1014.01 1013.78 1013.58 1013.42 1013.35 1013.39 1013.56 1013.84 1014.21 1014.62 1015.02 1015.38 1015.65 1015.82 1015.88 1015.86 1015.80 1015.73 1015.68 1015.67 1015.70 1015.75 1015.81 1015.88 1015.94 1016.00 1016.08 1016.21 1016.40 1016.67 1017.01
1018.64 1018.15 1017.64 1017.11 1016.59 1016.11 1015.67 1015.28 1014.93 1014.59 1014.27 1013.94 1013.61 1013.30 1013.04 1012.86 1012.81 1012.89 1013.13 1013.49 1013.94 1014.44 1014.92 1015.33 1015.64 1015.83 1015.92 1015.93 1015.89 1015.84 1015.81 1015.79 1015.80 1015.81 1015.82 1015.81 1015.79 1015.77 1015.79 1015.86 1016.03 1016.29 1016.65
1018.67 1018.21 1017.72 1017.22 1016.73 1016.26 1015.81 1015.38 1014.96 1014.53 1014.09 1013.65 1013.20 1012.80 1012.47 1012.25 1012.19 1012.30 1012.59 1013.01 1013.53 1014.09 1014.62 1015.08 1015.43 1015.66 1015.80 1015.85 1015.87 1015.87 1015.88 1015.91 1015.93 1015.94 1015.93 1015.88 1015.80 1015.73 1015.68 1015.70 1015.82 1016.05 1016.39
1018.77 1018.32 1017.86 1017.39 1016.92 1016.45 1015.98 1015.51 1015.02 1014.50 1013.94 1013.38 1012.82 1012.31 1011.90 1011.64 1011.55 1011.66 1011.97 1012.42 1012.97 1013.56 1014.12 1014.62 1015.01 1015.29 1015.48 1015.61 1015.71 1015.81 1015.90 1016.00 1016.08 1016.13 1016.13 1016.07 1015.97 1015.85 1015.76 1015.72 1015.79 1015.97 1016.26
1018.90 1018.47 1018.03 1017.58 1017.12 1016.66 1016.17 1015.65 1015.09 1014.48 1013.82 1013.14 1012.48 1011.88 1011.40 1011.07 1010.95 1011.03 1011.32 1011.77 1012.32 1012.91 1013.48 1013.99 1014.42 1014.75 1015.02 1015.24 1015.44 1015.64 1015.85 1016.05 1016.22 1016.34 1016.38 1016.35 1016.25 1016.11 1015.98 1015.90 1015.90 1016.02 1016.24
1019.04 1018.61 1018.19 1017.75 1017.30 1016.82 1016.32 1015.76 1015.14 1014.46 1013.73 1012.97 1012.23 1011.56 1011.00 1010.62 1010.45 1010.49 1010.73 1011.14 1011.66 1012.22 1012.78 1013.29 1013.74 1014.13 1014.46 1014.77 1015.08 1015.40 1015.72 1016.03 1016.30 1016.50 1016.61 1016.63 1016.55 1016.42 1016.27 1016.14 1016.09 1016.14 1016.28
Thickness
5800 5798 5790 5788 5787 5785 5784 5783 5782 5781 5780 5778 5777 5776 5775 5774 5773 5773 5772 5772 5772 5772 5772 5772 5772 5773 5773 5774 5774 5775 5776 5777 5777 5778 5778 5778 5779 5779 5779 5780 5781 5781 5778
5805 5799 5790 5788 5787 5785 5784 5783 5781 5780 5779 5778 5776 5775 5774 5773 5772 5772 5771 5771 5771 5771 5770 5770 5771 5771 5771 5772 5772 5773 5773 5774 5774 5774 5775 5776 5776 5776 5776 5777 5777 5778 5776
5805 5799 5792 5789 5787 5785 5784 5782 5781 5779 5778 5777 5775 5774 5773 5772 5771 5771 5770 5769 5769 5769 5769 5769 5769 5769 5770 5770 5770 5771 5771 5771 5771 5772 5774 5777 5775 5773 5773 5773 5773 5772 5772
5804 5799 5794 5788 5787 5785 5783 5782 5780 5779 5777 5776 5775 5773 5772 5771 5770 5770 5769 5769 5768 5768 5768 5768 5768 5768 5768 5768 5768 5768 5768 5769 5769 5770 5775 5775 5775 5770 5770 5769 5769 5769 5769
5802 5798 5793 5788 5786 5784 5783 5781 5780 5778 5777 5775 5774 5773 5772 5771 5770 5769 5768 5768 5767 5767 5767 5766 5766 5766 5766 5766 5766 5766 5766 5766 5767 5770 5771 5771 5770 5767 5767 5767 5766 5766 5766
5800 5797 5791 5787 5785 5783 5782 5780 5779 5777 5776 5774 5773 5772 5771 5770 5769 5768 5767 5767 5766 5766 5765 5765 5765 5765 5765 5764 5764 5764 5764 5765 5766 5769 5769 5769 5768 5765 5765 5764 5764 5764 5764
5799 5795 5791 5785 5783 5782 5780 5779 5777 5776 5775 5773 5772 5771 5770 5769 5768 5767 5767 5766 5765 5765 5764 5764 5763 5763 5763 5763 5763 5763 5763 5764 5768 5767 5767 5767 5765 5763 5762 5762 5762 5762 5762
5797 5794 5790 5783 5781 5780 5779 5778 5776 5775 5774 5773 5771 5770 5769 5768 5767 5766 5765 5765 5764 5763 5762 5762 5762 5762 5761 5761 5761 5761 5762 5762 5765 5767 5766 5765 5762 5761 5760 5760 5760 5760 5760
5795 5792 5790 5787 5782 5779 5777 5776 5775 5774 5773 5772 5770 5769 5768 5767 5766 5765 5764 5763 5762 5762 5761 5760 5760 5760 5760 5760 5760 5761 5760 5761 5765 5766 5766 5764 5760 5759 5758 5758 5758 5758 5758
5792 5790 5788 5787 5784 5783 5779 5775 5774 5773 5772 5770 5769 5768 5767 5766 5765 5764 5763 5762 5761 5761 5760 5759 5759 5759 5759 5759 5759 5760 5760 5761 5764 5765 5766 5763 5758 5758 5757 5756 5756 5756 5756
5785 5786 5786 5785 5782 5781 5779 5777 5774 5772 5771 5770 5769 5767 5766 5767 5767 5765 5764 5761 5760 5760 5759 5758 5758 5758 5758 5759 5758 5759 5760 5764 5764 5765 5763 5759 5757 5757 5756 5755 5755 5755 5754
5776 5780 5782 5781 5779 5778 5777 5776 5773 5773 5771 5770 5770 5769 5768 5769 5768 5767 5763 5760 5759 5758 5758 5757 5757 5757 5758 5762 5761 5759 5764 5763 5764 5764 5761 5756 5756 5755 5755 5754 5754 5753 5753
5770 5772 5774 5775 5775 5774 5773 5773 5772 5771 5770 5770 5770 5769 5767 5767 5766 5765 5764 5761 5760 5759 5760 5758 5758 5761 5763 5764 5764 5765 5765 5765 5765 5764 5760 5755 5754 5754 5754 5753 5752 5752 5751
5760 5762 5766 5767 5769 5769 5769 5769 5768 5768 5769 5769 5768 5768 5766 5765 5765 5766 5764 5764 5763 5761 5761 5761 5761 5762 5762 5764 5764 5766 5765 5764 5764 5762 5758 5754 5753 5753 5752 5752 5751 5751 5750
5752 5754 5757 5759 5761 5763 5763 5764 5765 5765 5766 5766 5764 5764 5764 5763 5763 5764 5763 5761 5761 5761 5760 5758 5759 5761 5761 5762 5764 5764 5764 5763 5762 5761 5758 5753 5751 5751 5751 5750 5750 5749 5749
5743 5746 5749 5751 5753 5754 5756 5758 5760 5761 5761 5761 5761 5761 5761 5761 5760 5760 5760 5760 5759 5759 5759 5758 5759 5759 5759 5760 5760 5760 5761 5762 5760 5758 5757 5753 5750 5749 5749 5749 5748 5747 5747
5734 5738 5741 5743 5745 5747 5749 5751 5753 5755 5756 5757 5757 5758 5759 5758 5758 5757 5757 5758 5758 5757 5757 5756 5758 5756 5756 5757 5756 5757 5758 5758 5758 5757 5756 5754 5752 5748 5747 5746 5746 5745 5745
5726 5729 5732 5734 5736 5739 5741 5743 5747 5749 5750 5752 5753 5754 5755 5756 5755 5754 5754 5754 5755 5754 5754 5753 5753 5752 5753 5753 5755 5755 5756 5755 5755 5755 5755 5753 5752 5751 5747 5744 5743 5743 5742
5716 5719 5722 5725 5727 5730 5732 5736 5739 5742 5745 5747 5749 5750 5751 5752 5752 5751 5750 5751 5752 5750 5750 5750 5750 5750 5749 5749 5750 5751 5753 5753 5753 5752 5753 5752 5751 5748 5748 5743 5741 5741 5740
5707 5709 5711 5715 5717 5721 5725 5728 5732 5735 5738 5741 5744 5745 5747 5748 5748 5747 5746 5747 5747 5746 5745 5745 5745 5744 5745 5744 5746 5747 5749 5750 5750 5750 5750 5750 5749 5748 5747 5745 5742 5740 5738
5696 5698 5700 5703 5707 5709 5712 5716 5720 5724 5729 5733 5737 5739 5741 5743 5744 5743 5743 5743 5742 5741 5740 5741 5740 5738 5738 5741 5739 5737 5741 5745 5747 5746 5746 5747 5747 5746 5743 5743 5743 5742 5739
5684 5686 5689 5692 5695 5698 5701 5705 5710 5714 5719 5724 5728 5731 5734 5737 5738 5739 5739 5738 5737 5736 5735 5735 5734 5733 5733 5735 5732 5726 5725 5731 5736 5742 5743 5742 5744 5743 5742 5742 5742 5739 5739
5674 5675 5677 5681 5685 5688 5692 5696 5700 5705 5710 5714 5718 5723 5727 5729 5731 5733 5734 5734 5733 5732 5731 5731 5730 5727 5725 5728 5730 5725 5719 5719 5726 5734 5739 5739 5739 5740 5739 5739 5740 5739 5737
5664 5666 5669 5672 5676 5680 5683 5685 5688 5692 5697 5703 5709 5713 5718 5722 5724 5726 5727 5728 5728 5727 5727 5726 5725 5724 5721 5720 5722 5724 5725 5724 5718 5720 5728 5734 5734 5734 5735 5735 5735 5736 5735
5656 5657 5659 5662 5665 5669 5673 5676 5679 5683 5689 5695 5700 5704 5709 5713 5716 5718 5720 5721 5721 5721 5721 5720 5720 5720 5719 5717 5716 5716 5717 5718 5719 5716 5715 5721 5725 5728 5730 5730 5730 5730 5730
5648 5648 5650 5652 5655 5659 5662 5667 5670 5674 5679 5684 5689 5693 5698 5703 5707 5710 5711 5713 5714 5714 5714 5714 5714 5714 5714 5714 5713 5713 5712 5711 5711 5711 5710 5711 5713 5719 5722 5722 5722 5723 5723